Regional Weather Roundup
Issued by NWS San Angelo, TX

Home | Current Version | Previous Version | Graphics & Text | Print | Product List | Glossary Off
Versions: 1 2 3 4 5 6 7 8 9 10 11 12 13 14 15 16 17 18 19 20 21 22 23 24 25 26 27 28 29 30 31 32 33 34 35 36 37 38 39 40 41 42 43 44 45 46 47 48 49 50

073
ASUS44 KSJT 102211
RWRSJT
WEST CENTRAL TEXAS REGIONAL WEATHER ROUNDUP
NATIONAL WEATHER SERVICE SAN ANGELO TX
400 PM CST WED FEB 10 2016

NOTE: "FAIR" INDICATES FEW OR NO CLOUDS BELOW 12,000 FEET WITH NO
SIGNIFICANT WEATHER AND/OR OBSTRUCTIONS TO VISIBILITY.

TXZ049-054-064>066-071>073-076>078-098-099-113-114-127-128-139-140-
154-155-168>170-102300
...LOCATIONS ACROSS WEST CENTRAL TEXAS...

CITY           SKY/WX    TMP DP  RH WIND       PRES   REMARKS
SAN ANGELO     SUNNY     79  19  10 W15       30.18F
ABILENE        SUNNY     77  25  14 SW15      30.15F
DYESS AFB      SUNNY     78  27  15 SW17G26   30.14F
JUNCTION       SUNNY     76  22  13 SW10      30.21F
SWEETWATER     SUNNY     76  19  11 SW21      30.19F
BROWNWOOD      SUNNY     75  27  16 W13       30.17F
COLEMAN        CLEAR     77  27  15 SW14G20   30.18F
SONORA         SUNNY     75  23  14 SW8G14    30.26F
OZONA          FAIR      75  21  13 SW12G22   30.25F
BRADY          NOT AVBL
$$

TEXAS PANHANDLE/OKLAHOMA PANHANDLE

CITY           SKY/WX    TMP DP  RH WIND       PRES   REMARKS
AMARILLO       SUNNY     78  12   8 W15       30.08F
BORGER         SUNNY     79   6   6 W16G22    30.05F
CANADIAN       SUNNY     82   7   5 W16G22    29.99F
DALHART        SUNNY     80  -1   4 W8        30.08F
DUMAS          CLEAR     77  13   9 SW15      30.07F
GUYMON         NOT AVBL
HEREFORD       NOT AVBL
PAMPA          CLEAR     80  11   7 W14G21    30.06F
PERRYTON       SUNNY     82  14   7 W14       30.00F
$$

SOUTHERN PANHANDLE/SOUTH PLAINS/ROLLING PLAINS

CITY           SKY/WX    TMP DP  RH WIND       PRES   REMARKS
LUBBOCK        SUNNY     77  15   9 W21       30.14F
SNYDER           N/A     75  24  14 SW20      30.17F
CHILDRESS      SUNNY     82  18   9 W18G28    30.03F
SEMINOLE       CLEAR     74  20  13 SW15      30.20F
$$

PERMIAN BASIN

CITY           SKY/WX    TMP DP  RH WIND       PRES   REMARKS
MIDLAND        SUNNY     74  21  13 SW14      30.21F
ODESSA         SUNNY     74  19  12 SW15      30.22F
WINK           SUNNY     74  21  13 SW8       30.20F
$$

FAR WEST/SOUTHWEST MOUNTAINS/TRANS PECOS

CITY           SKY/WX    TMP DP  RH WIND       PRES   REMARKS
ALPINE         CLEAR     71  12  10 SW9G17    30.33F
DRYDEN           N/A     77  19  11 S16G22    30.20F
EL PASO        SUNNY     69  14  12 CALM      30.26F
FORT STOCKTON  SUNNY     73  23  15 E5        30.22F
GUADALUPE PASS SUNNY     66  13  12 W26G32    30.29F
MARFA          SUNNY     70  15  12 SW14      30.30F
PECOS          CLEAR     75  24  15 S3        30.20F
$$

DALLAS/FORT WORTH METROPLEX

CITY           SKY/WX    TMP DP  RH WIND       PRES   REMARKS
DFW AIRPORT    SUNNY     73  31  21 SW17      30.11F
FTW MEACHAM    SUNNY     76  31  19 SW13      30.11F
DAL-EXECUTIVE  SUNNY     72  32  23 SW14G22   30.12F
GRAND PRAIRIE  SUNNY     73  30  20 SW12      30.14F
ADDISON        NOT AVBL
MESQUITE       CLEAR     70  30  23 S15G23    30.14F
LANCASTER      CLEAR     71  28  20 SW12      30.15F
$$

NORTH CENTRAL TEXAS

CITY           SKY/WX    TMP DP  RH WIND       PRES   REMARKS
SHRMAN/DENISON CLEAR     69  31  24 SW18G24   30.09F
GAINESVILLE    SUNNY     74  32  21 SW10      30.09F
BRIDGEPORT     CLEAR     76  36  23 W13G21    30.12F
DENTON         SUNNY     73  32  22 SW16      30.09F
WAXAHACHIE     CLEAR     72  36  27 SW10G21   30.15F
GRANBURY       CLEAR     78  30  17 SW14      30.14F
$$

WESTERN NORTH TEXAS

CITY           SKY/WX    TMP DP  RH WIND       PRES   REMARKS
WICHITA FALLS  SUNNY     77  26  15 SW25G33   30.04F
VERNON         CLEAR     82   2   4 SW20G28   30.03F
BRECKENRIDGE   CLEAR     79  26  14 SW15G24   30.12F
COMANCHE       SUNNY     75  31  19 W15G22    30.17F
$$

CENTRAL AND SOUTH CENTRAL TEXAS

CITY           SKY/WX    TMP DP  RH WIND       PRES   REMARKS
AUSTIN/BERGSTM SUNNY     73  33  23 S13       30.22F
WACO           SUNNY     73  31  21 SW12      30.18F
HILLSBORO      CLEAR     72  32  23 SW17      30.16F
TEMPLE         SUNNY     74  34  23 S15       30.19F
KILLEEN-GRAY   SUNNY     73  29  19 SW13      30.18F
FORT HOOD      SUNNY     75  28  17 W12       30.17F
GEORGETOWN     NOT AVBL
LAGO VISTA     FAIR      75  31  19 S5        30.22F
SAN MARCOS     SUNNY     73  34  23 S10       30.25F
NEW BRAUNFELS  SUNNY     75  30  19 SW13      30.22F
RANDOLPH AFB   SUNNY     74  31  20 SW8       30.24F
SAN ANTONIO    SUNNY     74  31  20 SW13      30.24F
STINSON        SUNNY     77  28  16 SW8       30.22F
PLEASANTON     NOT AVBL
LA GRANGE      SUNNY     73  38  28 S9        30.23F
GIDDINGS       CLEAR     72  34  25 S9        30.27F
$$

EAST TEXAS

CITY           SKY/WX    TMP DP  RH WIND       PRES   REMARKS
PARIS          SUNNY     64  34  32 S18       30.12F
CLARKSVILLE    NOT AVBL
TYLER          SUNNY     68  31  25 SW16G24   30.16F
LONGVIEW       SUNNY     66  31  27 SW20G25   30.15F
PALESTINE      CLEAR     69  33  26 SW12      30.20F
NACOGDOCHES    SUNNY     66  32  28 SW10G17   30.21F
$$

TEXAS HILL COUNTRY AND EDWARDS PLATEAU

CITY           SKY/WX    TMP DP  RH WIND       PRES   REMARKS
LLANO          CLEAR     77  32  19 CALM      30.22F
HORSESHOE BAY  FAIR      79  30  16 SW8       30.21F
KERRVILLE      SUNNY     76  27  16 SW9       30.24F
FREDERICKSBRG  SUNNY     74  26  17 S10       30.22F
ROCKSPRINGS    CLEAR     73  30  20 SW9       30.27F
HONDO          SUNNY     76  27  16 S13       30.26F
UVALDE         CLEAR     75  31  19 S6        30.24F
DEL RIO        SUNNY     78  25  14 SE9       30.20F
$$

SOUTHEAST TEXAS

CITY           SKY/WX    TMP DP  RH WIND       PRES   REMARKS
COLLEGE STN    SUNNY     70  33  25 SW8       30.23F
CALDWELL       CLEAR     70  32  24 SW8       30.26F
CROCKETT       CLEAR     68  32  26 SW12      30.24F
BRENHAM        SUNNY     72  34  24 S10G16    30.25F
HUNTSVILLE     SUNNY     70  32  24 SW12G20   30.22F
CONROE         SUNNY     69  29  22 S12       30.25F
HOUSTON BUSH   SUNNY     70  31  23 S8        30.25F
HOUSTON HOBBY  SUNNY     66  34  30 S12       30.27F
PERLAND        SUNNY     65  35  33 S12       30.29F
WHARTON        CLEAR     69  41  36 SE16      30.28F
$$

THE UPPER TEXAS COAST

CITY           SKY/WX    TMP DP  RH WIND       PRES   REMARKS
ORANGE         CLEAR     59  29  32 S12       30.31S
PORT ARTHUR    MOSUNNY   63  35  35 S8        30.28F
GALVESTON      SUNNY     58  42  55 S12       30.31F
ANGLETON       SUNNY     65  39  38 S12       30.30F
BAY CITY       CLEAR     65  44  45 S9        30.29F
$$

TEXAS COASTAL BEND, RIO GRANDE PLAINS DEEP SOUTH TEXAS

CITY           SKY/WX    TMP DP  RH WIND       PRES   REMARKS
VICTORIA       SUNNY     73  42  32 S14       30.26F
BEEVILLE       FAIR      78  34  20 SW7       30.25F
ROCKPORT       SUNNY     68  47  46 SE12      30.28F
PORT ARANSAS   CLEAR     64  53  68 SE12      30.28F
PORT LAVACA    CLEAR     68  46  45 S13       30.28F
CORPUS CHRISTI MOSUNNY   77  43  29 SE16      30.26F
KINGSVILLE NAS SUNNY     78  37  22 S14       30.25F
COTULLA        SUNNY     80  26  13 MISG      30.23F
LAREDO         SUNNY     80  27  14 SE15      30.24F
BROWNSVILLE    SUNNY     75  37  25 S13       30.30F
PORT ISABEL    SUNNY     77  36  22 S14G21    30.28F
HEBBRONVILLE   NOT AVBL
MCALLEN        SUNNY     82  29  14 SE10G21   30.26F
WESLACO        SUNNY     80  30  16 SE6       30.26F
FALFURRIAS     CLEAR     80  24  12 S5        30.24F
EDINBURG       CLEAR     82  22  10 S7        30.26F
$$




USA.gov is the U.S. government's official web portal to all federal, state and local government web resources and services.